Home   Weather   Saint-Pierre   Past weeks
Flag for Saint Pierre and Miquelon

Past Weather in Saint-Pierre, Saint Pierre and Miquelon — Yesterday and Last 2 Weeks

Now
23 °F

Passing clouds.


Feels Like: 11 °F
Forecast: 29 / 26 °F
Wind: 13 mph from West

Location: Saint-Pierre

Current Time: Mar 19, 2019 at 7:17:32 am

Latest Report: Mar 19, 2019 at 6:00 am


Visibility: 31 mi

Pressure: 30.16 "Hg

Humidity: 74%

Dew Point: 16 °F

Location of Saint-PierreLocation

Past Weather in Saint-Pierre — Graph

°F

Saint-Pierre Temperature Yesterday

Maximum temperature yesterday: 32 °F (at 1:00 pm)
Minimum temperature yesterday: 25 °F (at 2:00 am)
Average temperature yesterday: 27 °F

High & Low Weather Summary for the Past Weeks

 TemperatureHumidityPressure
High40 °F (Mar 16, 8:00 pm)100% (Mar 4, 11:00 pm)30.57 "Hg (Mar 4, 11:00 pm)
Low14 °F (Mar 7, 8:00 pm)48% (Mar 8, 10:00 pm)29.18 "Hg (Mar 5, 1:00 am)
Average28 °F80%29.96 "Hg
* Reported Mar 4 5:00 am — Mar 19 6:00 am, Saint-Pierre. Weather by CustomWeather, © 2019

Note: Actual official high and low records may vary slightly from our data, if they occured in-between our weather recording intervals... More about our weather records

Advertising

Saint-Pierre Weather History for the Previous 24 Hours

Scroll right to see more
 ConditionsComfort  
Time TempWeatherWind HumidityBarometerVisibility
6:00 am
Tue, Mar 19
23 °FPassing clouds.13 mph74%30.16 "Hg31 mi
5:00 am22 °FCold.12 mph78%30.15 "Hg31 mi
4:00 am23 °FOvercast.14 mph87%30.16 "Hg12 mi
3:00 am25 °FHeavy snow. Overcast.10 mph89%30.16 "Hg1 mi
2:00 am26 °FPassing clouds.13 mph79%30.15 "Hg12 mi
1:00 am25 °FPassing clouds.15 mph76%30.15 "Hg16 mi
12:00 am25 °FChilly.13 mph68%30.15 "Hg28 mi
11:00 pm
Mon, Mar 18
25 °FChilly.13 mph68%30.14 "Hg22 mi
10:00 pm25 °FCold.13 mph65%30.12 "Hg17 mi
9:00 pm25 °FChilly.13 mph63%30.10 "Hg25 mi
8:00 pm26 °FPassing clouds.15 mph73%30.09 "Hg9 mi
7:00 pm27 °FOvercast.17 mph67%30.08 "Hg11 mi
6:00 pm29 °FPartly sunny.21 mph53%30.06 "Hg12 mi
5:00 pm30 °FScattered clouds.21 mph50%30.05 "Hg12 mi
4:00 pm32 °FScattered clouds.22 mph52%30.05 "Hg12 mi
3:00 pm32 °FChilly.22 mph54%30.04 "Hg12 mi
2:00 pm31 °FPartly sunny.18 mph59%30.05 "Hg12 mi
1:00 pm32 °FScattered clouds.21 mph52%30.04 "Hg12 mi
12:00 pm30 °FOvercast.18 mph63%30.04 "Hg12 mi
11:00 am29 °FOvercast.21 mph59%30.03 "Hg12 mi
10:00 am27 °FSnow flurries. Overcast.20 mph69%30.02 "Hg7 mi
9:00 am26 °FPartly sunny.16 mph70%30.00 "Hg12 mi
8:00 am25 °FScattered clouds.12 mph74%29.98 "Hg12 mi
7:00 am26 °FPassing clouds.17 mph70%29.96 "Hg12 mi
Weather by CustomWeather, © 2019

See weather overview